Zurück zum Katalog

FENGYUN 1C DEB

AktivSSO
NORAD 32160·DEBRIS·🇨🇳 China

Gestartet May 10, 1999 von Taiyuan Satellite Launch Center

Loading…

Nächste Überflüge (nächste 24 Stunden)

TLE

AktuellSource: Space-Track

Epoche: Sep 14, 2026, 05:13 UTC

1 32160U 99025CTE 26257.21795394  .00000803  00000-0  26967-3 0  9993
2 32160  98.9102  69.1165 0080231 265.3706  93.8313 14.38340606998462

Verfolge FENGYUN 1C DEB in Echtzeit mit AllMySat

Download on the App Store